Date String (YYYY-MM-DD hh:mm:ss) UTC,Instrument flags,absolute air pressure of the measurement (hPa),sample flow rate (lpm),inlet stack bypass flow (lpm),air temperature of the measurement (°C),ambient temperature measured by the external sensor (°C),aerosol sample conditioner tube jacket temperature (°C),OPC LED temperature (°C),internal box temperature (°C),relative humidity of the measurement (%),span deviation,mass concentration of particles derived from Lorenz-Mie calculation of OPC scattering (μg/m³),mass concentration of particles derived from Lorenz-Mie calculation of OPC scattering (μg/m³),mass concentration of particles derived from Lorenz-Mie calculation of OPC scattering (μg/m³)
DateTimeUTC,F1_M11,P_M11,Q1_M11,Q2_M11,T1_M11,T2_M11,T3_M11,T4_M11,T5_M11,U1_M11,ZSPAN_M11,X2_M11,X0_M11,X1_M11
2024-06-02 10:00:00,SystemResetWarning,0826.2,5.01,000.00,030.4,029.5,000.0,039.1,032.1,018.1,0000.0,0005.04,0014.98,0004.25
2024-06-02 10:01:00,SystemResetWarning,0826.2,5.01,000.00,030.4,029.5,000.0,039.1,032.1,018.2,0000.0,0005.04,0014.84,0004.25
2024-06-02 10:02:00,SystemResetWarning,0826.2,5.00,000.00,030.4,029.5,000.0,039.1,032.1,018.3,0000.0,0005.01,0014.46,0004.25
2024-06-02 10:03:00,SystemResetWarning,0826.2,5.00,000.00,030.4,029.5,000.0,039.0,032.1,018.5,0000.0,0004.96,0014.30,0004.25
2024-06-02 10:04:00,SystemResetWarning,0826.2,4.99,000.00,030.4,029.5,000.0,039.0,032.1,018.5,0000.0,0004.96,0014.06,0004.24
2024-06-02 10:05:00,SystemResetWarning,0826.2,5.00,000.00,030.4,029.5,000.0,039.0,032.1,018.6,0000.0,0004.97,0014.28,0004.24
2024-06-02 10:06:00,SystemResetWarning,0826.2,5.00,000.00,030.4,029.5,000.0,039.0,032.1,018.7,0000.0,0004.96,0013.43,0004.24
2024-06-02 10:07:00,SystemResetWarning,0826.2,5.00,000.00,030.4,029.5,000.0,039.0,032.1,018.7,0000.0,0004.97,0013.22,0004.22
2024-06-02 10:08:00,SystemResetWarning,0826.2,5.00,000.00,030.4,029.4,000.0,039.0,032.1,018.9,0000.0,0004.99,0014.07,0004.21
2024-06-02 10:09:00,SystemResetWarning,0826.2,5.00,000.00,030.4,029.4,000.0,039.0,032.1,019.0,0000.0,0005.01,0014.49,0004.20
2024-06-02 10:10:00,SystemResetWarning,0826.1,4.99,000.00,030.3,029.4,000.0,039.0,032.0,019.1,0000.0,0004.95,0013.44,0004.17
2024-06-02 10:11:00,SystemResetWarning,0826.1,5.01,000.00,030.3,029.4,000.0,039.0,032.0,019.2,0000.0,0004.92,0013.09,0004.13
2024-06-02 10:12:00,SystemResetWarning,0826.1,5.01,000.00,030.3,029.4,000.0,039.0,032.0,019.3,0000.0,0004.90,0013.76,0004.10
2024-06-02 10:13:00,SystemResetWarning,0826.0,4.99,000.00,030.3,029.4,000.0,039.0,032.0,019.3,0000.0,0004.91,0013.71,0004.08
2024-06-02 10:14:00,SystemResetWarning,0826.0,4.99,000.00,030.3,029.3,000.0,038.9,032.0,019.2,0000.0,0004.93,0013.29,0004.06
2024-06-02 10:15:00,SystemResetWarning,0825.9,5.00,000.00,030.3,029.3,000.0,038.9,032.0,019.1,0000.0,0004.95,0013.43,0004.05
2024-06-02 10:16:00,SystemResetWarning,0825.9,5.00,000.00,030.3,029.3,000.0,038.9,032.0,019.1,0000.0,0004.95,0012.46,0004.03
2024-06-02 10:17:00,SystemResetWarning,0825.9,5.00,000.00,030.2,029.3,000.0,038.9,032.0,019.1,0000.0,0004.93,0012.02,0004.01
2024-06-02 10:18:00,SystemResetWarning,0825.9,5.01,000.00,030.2,029.3,000.0,038.9,032.0,019.0,0000.0,0004.89,0011.71,0003.99
2024-06-02 10:19:00,SystemResetWarning,0825.9,5.01,000.00,030.2,029.3,000.0,038.9,032.0,019.1,0000.0,0004.84,0010.49,0003.97
2024-06-02 10:20:00,SystemResetWarning,0825.9,5.00,000.00,030.2,029.3,000.0,038.9,032.0,019.0,0000.0,0004.80,0010.59,0003.95
2024-06-02 10:21:00,SystemResetWarning,0825.9,5.00,000.00,030.2,029.3,000.0,038.9,031.9,018.9,0000.0,0004.77,0010.76,0003.94
2024-06-02 10:22:00,SystemResetWarning,0825.9,5.00,000.00,030.2,029.3,000.0,038.9,031.9,018.5,0000.0,0004.74,0011.16,0003.93
2024-06-02 10:23:00,SystemResetWarning,0825.9,5.00,000.00,030.2,029.3,000.0,038.8,031.9,018.4,0000.0,0004.73,0010.62,0003.93
2024-06-02 10:24:00,SystemResetWarning,0825.9,5.00,000.00,030.2,029.3,000.0,038.8,031.9,018.5,0000.0,0004.71,0010.87,0003.91
2024-06-02 10:25:00,SystemResetWarning,0825.9,4.99,000.00,030.2,029.2,000.0,038.8,031.9,018.5,0000.0,0004.66,0010.94,0003.90
2024-06-02 10:26:00,SystemResetWarning,0825.9,5.00,000.00,030.2,029.2,000.0,038.8,031.9,018.4,0000.0,0004.61,0010.95,0003.87
2024-06-02 10:27:00,SystemResetWarning,0825.9,5.01,000.00,030.2,029.2,000.0,038.8,031.9,018.3,0000.0,0004.56,0011.12,0003.86
2024-06-02 10:28:00,SystemResetWarning,0825.9,5.00,000.00,030.2,029.2,000.0,038.8,031.9,018.4,0000.0,0004.52,0011.66,0003.85
2024-06-02 10:29:00,SystemResetWarning,0825.9,5.01,000.00,030.1,029.2,000.0,038.8,031.9,018.6,0000.0,0004.51,0011.74,0003.83
2024-06-02 10:30:00,SystemResetWarning,0825.9,5.01,000.00,030.1,029.2,000.0,038.8,031.9,018.6,0000.0,0004.50,0011.73,0003.82
2024-06-02 10:31:00,SystemResetWarning,0825.9,5.00,000.00,030.1,029.2,000.0,038.8,031.8,018.6,0000.0,0004.47,0011.37,0003.80
2024-06-02 10:32:00,SystemResetWarning,0825.9,5.00,000.00,030.1,029.2,000.0,038.8,031.8,018.7,0000.0,0004.45,0010.63,0003.78
2024-06-02 10:33:00,SystemResetWarning,0825.9,5.00,000.00,030.1,029.1,000.0,038.8,031.8,018.9,0000.0,0004.49,0010.46,0003.78
2024-06-02 10:34:00,SystemResetWarning,0825.9,5.00,000.00,030.1,029.1,000.0,038.8,031.8,019.0,0000.0,0004.48,0010.25,0003.77
2024-06-02 10:35:00,SystemResetWarning,0825.9,5.00,000.00,030.1,029.1,000.0,038.7,031.8,019.0,0000.0,0004.45,0010.13,0003.76
2024-06-02 10:36:00,SystemResetWarning,0825.8,4.99,000.00,030.1,029.1,000.0,038.7,031.8,019.1,0000.0,0004.45,0009.98,0003.74
2024-06-02 10:37:00,SystemResetWarning,0825.8,4.99,000.00,030.0,029.1,000.0,038.7,031.7,019.2,0000.0,0004.43,0010.50,0003.73
2024-06-02 10:38:00,SystemResetWarning,0825.8,5.00,000.00,030.0,029.1,000.0,038.7,031.7,019.4,0000.0,0004.42,0010.74,0003.71
2024-06-02 10:39:00,SystemResetWarning,0825.8,5.00,000.00,030.0,029.0,000.0,038.7,031.8,019.4,0000.0,0004.42,0010.17,0003.69
2024-06-02 10:40:00,SystemResetWarning,0825.8,5.00,000.00,030.0,029.0,000.0,038.7,031.7,019.5,0000.0,0004.40,0009.97,0003.67
2024-06-02 10:41:00,SystemResetWarning,0825.8,5.00,000.00,030.0,029.0,000.0,038.7,031.7,019.6,0000.0,0004.36,0009.89,0003.66
2024-06-02 10:42:00,SystemResetWarning,0825.8,5.00,000.00,030.0,029.0,000.0,038.7,031.7,019.7,0000.0,0004.36,0009.87,0003.64
2024-06-02 10:43:00,SystemResetWarning,0825.8,5.00,000.00,030.0,029.0,000.0,038.7,031.7,019.8,0000.0,0004.34,0009.81,0003.63
2024-06-02 10:44:00,SystemResetWarning,0825.8,5.00,000.00,030.0,029.0,000.0,038.6,031.7,019.9,0000.0,0004.27,0009.86,0003.60
2024-06-02 10:45:00,SystemResetWarning,0825.8,5.01,000.00,029.9,029.0,000.0,038.6,031.7,019.9,0000.0,0004.25,0010.05,0003.58
2024-06-02 10:46:00,SystemResetWarning,0825.8,5.00,000.00,029.9,028.9,000.0,038.6,031.7,020.0,0000.0,0004.26,0010.77,0003.56
2024-06-02 10:47:00,SystemResetWarning,0825.9,5.00,000.00,029.9,028.9,000.0,038.6,031.6,020.0,0000.0,0004.29,0011.06,0003.54
2024-06-02 10:48:00,SystemResetWarning,0825.9,4.99,000.00,029.9,028.9,000.0,038.6,031.6,019.9,0000.0,0004.26,0010.95,0003.52
2024-06-02 10:49:00,SystemResetWarning,0825.9,5.00,000.00,029.9,029.0,000.0,038.6,031.6,019.8,0000.0,0004.25,0010.25,0003.51
2024-06-02 10:50:00,SystemResetWarning,0825.9,5.00,000.00,029.9,029.0,000.0,038.5,031.7,019.8,0000.0,0004.23,0010.08,0003.51
2024-06-02 10:51:00,SystemResetWarning,0825.9,5.00,000.00,029.9,029.0,000.0,038.5,031.7,019.9,0000.0,0004.20,0010.01,0003.50
2024-06-02 10:52:00,SystemResetWarning,0825.9,5.00,000.00,029.9,029.0,000.0,038.5,031.7,019.9,0000.0,0004.19,0010.44,0003.47
2024-06-02 10:53:00,SystemResetWarning,0825.9,4.99,000.00,029.9,029.0,000.0,038.5,031.7,020.0,0000.0,0004.18,0010.53,0003.45
2024-06-02 10:54:00,SystemResetWarning,0825.9,5.00,000.00,029.9,029.0,000.0,038.5,031.6,020.0,0000.0,0004.19,0010.54,0003.44
2024-06-02 10:55:00,SystemResetWarning,0825.9,5.00,000.00,029.9,029.0,000.0,038.5,031.6,019.9,0000.0,0004.20,0010.81,0003.44
2024-06-02 10:56:00,SystemResetWarning,0825.9,5.00,000.00,029.9,029.0,000.0,038.5,031.6,019.6,0000.0,0004.19,0011.32,0003.44
2024-06-02 10:57:00,SystemResetWarning,0825.9,5.00,000.00,029.9,029.0,000.0,038.5,031.6,019.4,0000.0,0004.17,0010.51,0003.45
2024-06-02 10:58:00,SystemResetWarning,0825.8,5.00,000.00,029.9,029.0,000.0,038.4,031.6,019.4,0000.0,0004.16,0010.00,0003.47
2024-06-02 10:59:00,SystemResetWarning,0825.8,5.00,000.00,029.9,029.0,000.0,038.4,031.6,019.4,0000.0,0004.20,0010.29,0003.48
